Regional Weather Roundup
Issued by NWS

Home | Current Version | Previous Version | Text Only | Print | Product List | Glossary On
Versions: 1 2 3 4 5 6 7 8 9 10 11 12 13 14 15 16 17 18 19 20 21 22 23 24 25 26 27 28 29 30 31 32 33 34 35 36 37 38 39 40 41 42 43 44 45 46 47 48 49 50
000
ASUS44 KLIX 270512
RWRLA
LOUISIANA REGIONAL WEATHER ROUNDUP
NATIONAL WEATHER SERVICE NEW ORLEANS LA
ISSUED BY NATIONAL WEATHER SERVICE MOBILE AL
1200 AM CDT MON JUN 27 2016

NOTE: "FAIR" INDICATES FEW OR NO CLOUDS BELOW 12,000 FEET WITH NO
      SIGNIFICANT WEATHER AND/OR OBSTRUCTIONS TO VISIBILITY.
      SKY/WX - SKY CONDITION AND SIGNIFICANT WEATHER.
      TMP - AIR TEMPERATURE.    DP   - DEWPOINT TEMPERATURE.
      RH  - RELATIVE HUMIDITY.  PRES - PRESSURE.
      HX  - HEAT INDEX.         WCI  - WIND CHILL INDEX.

LAZ040-048-061>063-065-066-069-270600-
SOUTHEAST LOUISIANA


CITY           SKY/WX    TMP DP  RH WIND       PRES   REMARKS
N.O. AUDUBON   NOT AVBL
N.O. INTL ARPT CLEAR     86  77  74 SW9       30.06S HX  97
N.O. LAKEFRONT CLEAR     86  77  74 SW10      30.06R HX  97
SLIDELL        PTCLDY    83  78  85 CALM      30.04S
BELLE CHASSE   CLEAR     80  77  90 SW5       30.06R
BATON ROUGE    CLEAR     81  75  82 CALM      30.05S
HAMMOND        CLEAR     82  73  74 SW3       30.05F
SALT POINT       N/A     86  76  71 CALM      30.05  HX  96
HOUMA          CLEAR     80  77  91 CALM      30.07S
GALLIANO         N/A     76  74  91 CALM      30.06S
BOOTHVILLE     CLEAR     82  74  76 S5        30.06S
PORT FOURCHON  CLEAR     84  75  74 SW5       30.07S

$$

LAZ041-044-053-054-270600-
SOUTHWEST LOUISIANA


CITY           SKY/WX    TMP DP  RH WIND       PRES   REMARKS
LAKE CHARLES   CLEAR     80  76  87 W5        30.08R
LAFAYETTE      CLEAR     84  77  79 SW7       30.07R
PATTERSON      CLEAR     80  79  96 CALM      30.07S
NEW IBERIA     MOCLDY    82  76  81 W3        30.07S
CHENAULT AIRPK HVY RAIN  83  76  79 CALM      30.08R
SULPHUR        CLEAR     81  76  85 CALM      30.09R

$$

LAZ027-028-270600-
CENTRAL LOUISIANA


CITY           SKY/WX    TMP DP  RH WIND       PRES   REMARKS
FORT POLK      PTCLDY    81  77  87 VRB3      30.09R
EAST FORT POLK NOT AVBL
AEXANDRIA INTL MOCLDY    80  78  94 N3        30.06R
ALEXANDRIA     CLEAR     80  76  87 CALM      30.08R
DERIDDER       CLEAR     80  78  95 CALM      30.11R
OAKDALE        CLEAR     76  76  98 CALM      30.08R FOG
PEASON RIDGE   PTCLDY    79  76  90 CALM      30.08R

$$

LAZ001-002-270600-
NORTHWEST LOUISIANA


CITY           SKY/WX    TMP DP  RH WIND       PRES   REMARKS
SHREVEPORT     PTCLDY    80  78  94 CALM      30.09R
BARKSDALE AFB  CLEAR     79  79 100 CALM      30.10R
DTN SHREVEPORT CLEAR     80  77  90 CALM      30.09R
NATCHITOCHES   PTCLDY    80  79  98 CALM      30.09R

$$

LAZ004-006-270600-
NORTHEAST LOUISIANA


CITY           SKY/WX    TMP DP  RH WIND       PRES   REMARKS
MONROE         CLEAR     83  78  85 CALM      30.08R
BASTROP        CLEAR     78  77  98 CALM      30.09R
RUSTON         MOCLDY    78  76  93 CALM      30.12S
TALLULAH       CLEAR     79  77  94 CALM      30.07R

$$





USA.gov is the U.S. government's official web portal to all federal, state and local government web resources and services.